weerbeeld Almere Meer informatie weerbeeld Almere


Onweer radar Meer informatie blitzortung!


Regen radar Meer informatie rain snow radar


Apparatuur in gebruik:

Davis VP2

Meteohub

ALIX 1D

Web-Oke


Het weer levert geen direct gevaar op.    Er zijn geen waarschuwingen afgegeven.

Weather Underground Historische gegevens

Dagelijkse Samenvatting mei 28, 2018 Eenheden:  Metrisch    Engels   Beide
« Vorige Dag
Volgende Dag »
Dagelijkse Wekelijkse Maandelijkse Jaarlijkse Aangepaste
  Huidig: Hoog: Laag: Gemiddeld:
Temperatuur: -7.1 °C -17.8 °C -7.7 °C -6.9 °C
Dauwpunt: -8.8 °C -17.8 °C -9.4 °C -9.1 °C
Vochtigheid: 82 % Humidity % 75 % 77 %
Wind snelheid: 7.7 km/h 0 km/h 0 km/h 4.5 km/h
Windvlaag: 12.9 km/h 0 km/h - -
Wind:East - - East
Luchtdruk: 34452.6 hPa 0 hPa 34428.8 hPa -
Neerslag: 0 mm      
Historical Graphs
 
 
Tabel voor mei 28, 2018
Tijd Temperatuur Dauwpunt Luchtdruk Wind Wind snelheid Windvlaag Vochtigheid Regenval per uur
-17.8 °C -17.8 °C 0 hPa Calm     Humidity % 0 mm
00:02 -6 °C -8.4 °C 34442.4 hPa East 2.6 km/h 7.7 km/h 76 % 0 mm
00:07 -6.1 °C -8.5 °C 34452.6 hPa East 2.6 km/h 7.7 km/h 76 % 0 mm
00:12 -6.1 °C -8.4 °C 34452.6 hPa East 2.6 km/h 7.7 km/h 77 % 0 mm
00:17 -6.1 °C -8.4 °C 34452.6 hPa East 5.1 km/h 7.7 km/h 77 % 0 mm
00:22 -6.1 °C -8.4 °C 34452.6 hPa East 7.7 km/h 12.9 km/h 77 % 0 mm
00:27 -6.1 °C -8.6 °C 34452.6 hPa Calm   12.9 km/h 76 % 0 mm
00:32 -6.1 °C -8.6 °C 34452.6 hPa East 2.6 km/h 12.9 km/h 76 % 0 mm
00:37 -6.2 °C -8.6 °C 34452.6 hPa ENE 7.7 km/h 12.9 km/h 76 % 0 mm
00:42 -6.2 °C -8.6 °C 34452.6 hPa ENE 7.7 km/h 12.9 km/h 76 % 0 mm
00:47 -6.2 °C -8.6 °C 34452.6 hPa ENE 5.1 km/h 12.9 km/h 76 % 0 mm
00:52 -6.2 °C -8.6 °C 34442.4 hPa ENE 10.3 km/h 12.9 km/h 76 % 0 mm
00:57 -6.1 °C -8.7 °C 34442.4 hPa ENE 7.7 km/h 15.6 km/h 75 % 0 mm
01:02 -6.1 °C -8.7 °C 34442.4 hPa ENE 5.1 km/h 18.2 km/h 75 % 0 mm
01:07 -6.1 °C -8.7 °C 34442.4 hPa ENE 7.7 km/h 18.2 km/h 75 % 0 mm
01:12 -6.1 °C -8.6 °C 34442.4 hPa East 2.6 km/h 18.2 km/h 75 % 0 mm
01:17 -6.1 °C -8.7 °C 34452.6 hPa East 5.1 km/h 12.9 km/h 75 % 0 mm
01:22 -6.1 °C -8.7 °C 34442.4 hPa East 2.6 km/h 15.6 km/h 75 % 0 mm
01:27 -6.2 °C -8.7 °C 34442.4 hPa ESE 10.3 km/h 15.6 km/h 75 % 0 mm
01:32 -6.2 °C -8.7 °C 34442.4 hPa ESE 10.3 km/h 12.9 km/h 75 % 0 mm
01:37 -6.2 °C -8.7 °C 34442.4 hPa SE 2.6 km/h 15.6 km/h 76 % 0 mm
01:42 -6.3 °C -8.7 °C 34442.4 hPa East 5.1 km/h 15.6 km/h 76 % 0 mm
01:47 -6.3 °C -8.8 °C 34442.4 hPa ENE 10.3 km/h 15.6 km/h 75 % 0 mm
01:52 -6.2 °C -8.8 °C 34442.4 hPa SE 12.9 km/h 15.6 km/h 75 % 0 mm
01:57 -6.3 °C -8.7 °C 34442.4 hPa East 7.7 km/h 20.8 km/h 76 % 0 mm
02:02 -6.3 °C -8.9 °C 34442.4 hPa East 5.1 km/h 20.8 km/h 75 % 0 mm
02:07 -6.3 °C -8.9 °C 34442.4 hPa SE 10.3 km/h 20.8 km/h 75 % 0 mm
02:12 -6.4 °C -9 °C 34442.4 hPa ESE 10.3 km/h 15.6 km/h 75 % 0 mm
02:17 -6.4 °C -9 °C 34442.4 hPa East 2.6 km/h 12.9 km/h 75 % 0 mm
02:22 -6.5 °C -9.1 °C 34442.4 hPa ESE 10.3 km/h 12.9 km/h 75 % 0 mm
02:27 -6.5 °C -9.1 °C 34442.4 hPa ENE 12.9 km/h 15.6 km/h 75 % 0 mm
02:32 -6.6 °C -9.1 °C 34442.4 hPa ESE 5.1 km/h 15.6 km/h 75 % 0 mm
02:37 -6.7 °C -9.1 °C 34442.4 hPa East 2.6 km/h 15.6 km/h 76 % 0 mm
02:47 -6.8 °C -9.2 °C 34442.4 hPa East 2.6 km/h 12.9 km/h 76 % 0 mm
02:52 -6.8 °C -9.2 °C 34428.8 hPa ENE 7.7 km/h 12.9 km/h 76 % 0 mm
03:02 -6.7 °C -9.3 °C 34428.8 hPa East 2.6 km/h 12.9 km/h 75 % 0 mm
03:07 -6.7 °C -9.3 °C 34428.8 hPa East 7.7 km/h 12.9 km/h 75 % 0 mm
03:17 -6.7 °C -9.3 °C 34428.8 hPa Calm   10.3 km/h 75 % 0 mm
03:22 -6.7 °C -9.3 °C 34428.8 hPa East 5.1 km/h 10.3 km/h 75 % 0 mm
03:27 -6.7 °C -9.3 °C 34428.8 hPa ENE 5.1 km/h 10.3 km/h 75 % 0 mm
03:32 -6.8 °C -9.3 °C 34428.8 hPa ENE 2.6 km/h 7.7 km/h 75 % 0 mm
03:37 -6.8 °C -9.3 °C 34428.8 hPa ENE 2.6 km/h 7.7 km/h 75 % 0 mm
03:42 -6.8 °C -9.3 °C 34428.8 hPa ENE 2.6 km/h 7.7 km/h 75 % 0 mm
03:47 -6.8 °C -9.3 °C 34428.8 hPa Calm   7.7 km/h 75 % 0 mm
03:52 -6.8 °C -9.4 °C 34428.8 hPa ENE 2.6 km/h 5.1 km/h 75 % 0 mm
03:57 -6.8 °C -9.4 °C 34428.8 hPa ENE 5.1 km/h 5.1 km/h 75 % 0 mm
04:02 -6.8 °C -9.4 °C 34428.8 hPa East 2.6 km/h 7.7 km/h 75 % 0 mm
04:07 -6.8 °C -9.3 °C 34428.8 hPa East 5.1 km/h 7.7 km/h 76 % 0 mm
04:12 -6.8 °C -9.3 °C 34428.8 hPa East 2.6 km/h 7.7 km/h 76 % 0 mm
04:17 -6.9 °C -9.3 °C 34428.8 hPa Calm   7.7 km/h 76 % 0 mm
04:22 -6.9 °C -9.3 °C 34428.8 hPa Calm   7.7 km/h 76 % 0 mm
04:27 -6.9 °C -9.3 °C 34428.8 hPa Calm   5.1 km/h 76 % 0 mm
04:32 -6.9 °C -9.2 °C 34428.8 hPa Calm   5.1 km/h 77 % 0 mm
04:37 -7 °C -9.3 °C 34428.8 hPa Calm     77 % 0 mm
04:42 -7 °C -9.3 °C 34428.8 hPa Calm     77 % 0 mm
04:47 -7 °C -9.3 °C 34428.8 hPa Calm     77 % 0 mm
04:52 -7.1 °C -9.3 °C 34428.8 hPa Calm     77 % 0 mm
04:57 -7.1 °C -9.4 °C 34428.8 hPa Calm     77 % 0 mm
05:02 -7.1 °C -9.3 °C 34428.8 hPa Calm     78 % 0 mm
05:07 -7.1 °C -9.3 °C 34428.8 hPa Calm     78 % 0 mm
05:12 -7.1 °C -9.2 °C 34442.4 hPa East 5.1 km/h   79 % 0 mm
05:17 -7.2 °C -9.1 °C 34442.4 hPa Calm   5.1 km/h 80 % 0 mm
05:22 -7.2 °C -9.1 °C 34442.4 hPa NNW 5.1 km/h 5.1 km/h 81 % 0 mm
05:27 -7.3 °C -9 °C 34442.4 hPa Calm   5.1 km/h 82 % 0 mm
05:32 -7.3 °C -9.1 °C 34442.4 hPa Calm   5.1 km/h 82 % 0 mm
05:37 -7.4 °C -9.1 °C 34442.4 hPa NE 2.6 km/h 7.7 km/h 82 % 0 mm
05:42 -7.4 °C -9.2 °C 34442.4 hPa NE 5.1 km/h 7.7 km/h 82 % 0 mm
05:47 -7.4 °C -9.1 °C 34442.4 hPa ENE 2.6 km/h 5.1 km/h 83 % 0 mm
05:52 -7.5 °C -9.1 °C 34452.6 hPa ENE 5.1 km/h 5.1 km/h 83 % 0 mm
05:57 -7.6 °C -9.2 °C 34452.6 hPa East 5.1 km/h 7.7 km/h 83 % 0 mm
06:02 -7.6 °C -9.1 °C 34452.6 hPa East 5.1 km/h 7.7 km/h 84 % 0 mm
06:12 -7.6 °C -9.2 °C 34452.6 hPa ENE 10.3 km/h 12.9 km/h 84 % 0 mm
06:17 -7.7 °C -9.2 °C 34452.6 hPa ENE 2.6 km/h 18.2 km/h 84 % 0 mm
06:27 -7.6 °C -9.2 °C 34452.6 hPa East 5.1 km/h 15.6 km/h 84 % 0 mm
06:32 -7.6 °C -9.2 °C 34452.6 hPa ENE 5.1 km/h 15.6 km/h 84 % 0 mm
06:42 -7.4 °C -9.1 °C 34452.6 hPa ESE 5.1 km/h 15.6 km/h 83 % 0 mm
06:47 -7.4 °C -9 °C 34452.6 hPa East 7.7 km/h 12.9 km/h 83 % 0 mm
06:52 -7.3 °C -8.9 °C 34452.6 hPa ENE 5.1 km/h 12.9 km/h 83 % 0 mm
06:57 -7.2 °C -8.9 °C 34452.6 hPa East 7.7 km/h 12.9 km/h 82 % 0 mm
07:02 -7.2 °C -8.9 °C 34452.6 hPa East 7.7 km/h 12.9 km/h 82 % 0 mm
07:07 -7.1 °C -8.8 °C 34452.6 hPa East 7.7 km/h 12.9 km/h 82 % 0 mm
Weerstation Almere Buiten
Gegevens verzameld door Weather Underground - 4 mb

Script ontwikkeld door  Jim McMurry - jmcmurry@mwt.net Aangepast voor de template door  Wim van der Kuil - Leuven-Template.eu

U vindt ons ook hier:

Het Weer Aktueel

UK Metoffice

European Weather Network

Weather Underground

AWEKAS